This is the latest recevied weather packets stored in our database for station/object WX4SGA. If no packets are shown the sender has not sent any weather packets the latest 10 day(s).
| Time | Temp. | Humidity | Pressure | Rain* | Wind** | Luminosity | Snow |
|---|---|---|---|---|---|---|---|
| 1788552476 | 31.11° C | 72% | 1014.6 hPa | 0 mm | - | 484 W/m² | - |
| 1788552170 | 31.11° C | 74% | 1014.6 hPa | 0 mm | - | 286 W/m² | - |
| 1788551870 | 31.11° C | 74% | 1014.6 hPa | 0 mm | - | 234 W/m² | - |
| 1788551568 | 31.11° C | 75% | 1014.6 hPa | 0 mm | - | 207 W/m² | - |
| 1788551263 | 31.11° C | 74% | 1014.6 hPa | 0 mm | - | 192 W/m² | - |
| 1788550962 | 31.67° C | 72% | 1014.6 hPa | 0 mm | - | 226 W/m² | - |
| 1788550658 | 31.67° C | 70% | 1014.6 hPa | 0 mm | - | 256 W/m² | - |
| 1788550354 | 31.67° C | 73% | 1014.9 hPa | 0 mm | - | 216 W/m² | - |
| 1788550049 | 31.67° C | 72% | 1014.6 hPa | 0 mm | - | 171 W/m² | - |
| 1788549744 | 31.11° C | 73% | 1014.6 hPa | 0 mm | - | 165 W/m² | - |
| 1788549441 | 31.11° C | 75% | 1014.6 hPa | 0 mm | - | 148 W/m² | - |
| 1788549137 | 31.67° C | 72% | 1014.6 hPa | 0 mm | - | 144 W/m² | - |
| 1788548833 | 31.11° C | 75% | 1014.9 hPa | 0 mm | - | 178 W/m² | - |
| 1788548529 | 31.67° C | 72% | 1014.9 hPa | 0 mm | - | 155 W/m² | - |
| 1788548225 | 32.22° C | 69% | 1014.9 hPa | 0 mm | - | 161 W/m² | - |
| 1788547920 | 32.22° C | 67% | 1014.9 hPa | 0 mm | - | 203 W/m² | - |
| 1788547618 | 31.67° C | 69% | 1015.2 hPa | 0 mm | - | 868 W/m² | - |
| 1788547314 | 31.67° C | 69% | 1014.9 hPa | 0 mm | - | 200 W/m² | - |
| 1788547010 | 32.22° C | 68% | 1014.9 hPa | 0 mm | - | 527 W/m² | - |
| 1788546709 | 32.78° C | 66% | 1015.2 hPa | 0 mm | - | 850 W/m² | - |
| 1788546404 | 32.22° C | 65% | 1015.2 hPa | 0 mm | - | 841 W/m² | - |
| 1788546093 | 32.78° C | 67% | 1015.2 hPa | 0 mm | - | 828 W/m² | - |
| 1788545789 | 31.67° C | 67% | 1015.2 hPa | 0 mm | - | 841 W/m² | - |
| 1788545484 | 31.67° C | 67% | 1015.2 hPa | 0 mm | - | 843 W/m² | - |
| 1788545180 | 32.78° C | 66% | 1015.2 hPa | 0 mm | - | 850 W/m² | - |
* Rain latest hour (hover to see other rain measurements)
** Current wind speed in m/s (hover to see current wind gust speed)